Stations météo

réclame
Mon MeteoGroup
Drumnadrochit, Grande-Bretagne (99132): Température de l'air & dewpoint: 10.07.2019 03:00:00 - 16.07.2019 03:00:00 (BST)Drumnadrochit, Grande-Bretagne (99132): Quantités de précipitations: 10.07.2019 03:00:00 - 16.07.2019 03:00:00 (BST)
Date & Time tt [°C] td [°C] rr [mm]
16.07.2019 03:00:00 10,0 10,0 0,0
16.07.2019 02:00:00 9,1 8,6 0,0
16.07.2019 01:00:00 10,2 9,6 0,0
16.07.2019 00:00:00 11,8 10,6 0,0
15.07.2019 23:00:00 12,3 11,1 0,0
15.07.2019 22:00:00 14,8 11,7 0,0
15.07.2019 21:00:00 16,3 11,4 0,0
15.07.2019 20:00:00 16,9 12,3 0,0
15.07.2019 19:00:00 16,9 12,2 0,0
15.07.2019 18:00:00 18,3 12,8 0,0
15.07.2019 17:00:00 20,0 13,6 0,0
15.07.2019 16:00:00 20,1 13,2 0,0
15.07.2019 15:00:00 21,9 12,2 0,0
15.07.2019 14:00:00 22,6 13,1 0,0
15.07.2019 13:00:00 20,4 13,8 0,0
15.07.2019 12:00:00 18,4 12,2 0,0
15.07.2019 11:00:00 15,9 11,6 0,0
15.07.2019 10:00:00 14,8 11,8 0,0
15.07.2019 09:00:00 12,7 10,5 0,0
15.07.2019 08:00:00 11,9 10,2 0,0
15.07.2019 07:00:00 11,4 10,2 0,0
15.07.2019 06:00:00 10,8 9,5 0,0
15.07.2019 05:00:00 10,4 9,4 0,0
15.07.2019 04:00:00 9,8 9,4 0,0
15.07.2019 03:00:00 10,5 9,6 0,0
15.07.2019 02:00:00 9,8 9,0 0,0
15.07.2019 01:00:00 9,6 9,1 0,0
15.07.2019 00:00:00 10,1 9,2 0,0
14.07.2019 23:00:00 11,4 9,6 0,0
14.07.2019 22:00:00 12,6 11,0 0,0
14.07.2019 21:00:00 14,6 10,8 0,0
14.07.2019 20:00:00 18,4 10,2 0,0
14.07.2019 19:00:00 19,2 10,6 0,0
14.07.2019 18:00:00 19,5 10,3 0,0
14.07.2019 17:00:00 19,2 9,9 0,0
14.07.2019 16:00:00 18,3 9,3 0,0
14.07.2019 15:00:00 17,9 8,7 0,0
14.07.2019 14:00:00 17,1 9,2 0,0
14.07.2019 13:00:00 16,5 8,5 0,0
14.07.2019 12:00:00 15,8 8,8 0,0
14.07.2019 11:00:00 15,1 8,8 0,0
14.07.2019 10:00:00 14,5 8,6 0,0
14.07.2019 09:00:00 14,3 8,1 0,0
14.07.2019 08:00:00 13,5 9,6 0,0
14.07.2019 07:00:00 11,9 10,5 0,0
14.07.2019 06:00:00 11,0 10,8 0,0
14.07.2019 05:00:00 10,5 10,3 0,0
14.07.2019 04:00:00 10,2 10,2 0,0
14.07.2019 03:00:00 9,4 9,4 0,0
14.07.2019 02:00:00 8,3 8,1 0,0
14.07.2019 01:00:00 8,2 7,7 0,0
14.07.2019 00:00:00 8,9 7,8 0,0
13.07.2019 23:00:00 11,3 9,1 0,0
13.07.2019 22:00:00 14,4 9,5 0,0
13.07.2019 21:00:00 15,0 9,9 0,0
13.07.2019 20:00:00 15,5 9,6 0,0
13.07.2019 19:00:00 16,1 9,7 0,0
13.07.2019 18:00:00 16,1 9,9 0,0
13.07.2019 17:00:00 17,4 9,9 0,0
13.07.2019 16:00:00 17,0 9,6 0,0
13.07.2019 15:00:00 17,1 9,6 0,0
13.07.2019 14:00:00 18,9 9,0 0,0
13.07.2019 13:00:00 18,3 8,4 0,0
13.07.2019 12:00:00 19,1 9,8 0,0
13.07.2019 11:00:00 17,4 9,6 0,0
13.07.2019 10:00:00 16,8 11,5 0,0
13.07.2019 09:00:00 16,6 11,6 0,0
13.07.2019 08:00:00 15,3 13,6 0,0
13.07.2019 07:00:00 14,2 13,6 0,0
13.07.2019 06:00:00 13,6 13,4 0,0
13.07.2019 05:00:00 13,5 13,1 0,0
13.07.2019 04:00:00 13,9 13,4 0,0
13.07.2019 03:00:00 14,3 13,6 0,0
13.07.2019 02:00:00 13,8 13,3 0,0
13.07.2019 01:00:00 13,7 12,9 0,0
13.07.2019 00:00:00 14,1 13,3 0,0
12.07.2019 23:00:00 14,4 13,4 0,0
12.07.2019 22:00:00 14,8 13,1 0,0
12.07.2019 21:00:00 15,7 13,5 0,0
12.07.2019 20:00:00 16,9 14,2 0,0
12.07.2019 19:00:00 18,0 14,7 0,0
12.07.2019 18:00:00 16,9 14,6 0,0
12.07.2019 17:00:00 17,9 14,4 0,0
12.07.2019 16:00:00 17,0 14,5 0,4
12.07.2019 15:00:00 17,8 14,8 0,0
12.07.2019 14:00:00 19,6 14,1 0,0
12.07.2019 13:00:00 17,8 13,2 0,0
12.07.2019 12:00:00 17,6 14,0 0,0
12.07.2019 11:00:00 15,7 13,1 0,0
12.07.2019 10:00:00 15,4 12,9 0,0
12.07.2019 09:00:00 15,1 12,8 0,0
12.07.2019 08:00:00 13,8 12,9 0,0
12.07.2019 07:00:00 13,2 12,9 0,0
12.07.2019 06:00:00 12,6 12,4 0,0
12.07.2019 05:00:00 12,4 12,2 0,0
12.07.2019 04:00:00 12,7 12,6 0,0
12.07.2019 03:00:00 13,0 12,9 0,0
12.07.2019 02:00:00 13,4 13,1 0,0
12.07.2019 01:00:00 14,0 13,8 0,0
12.07.2019 00:00:00 14,1 13,8 0,0
11.07.2019 23:00:00 14,5 13,9 0,0
11.07.2019 22:00:00 15,2 14,4 0,2
11.07.2019 21:00:00 15,4 14,9 1,6
11.07.2019 20:00:00 15,6 14,7 0,2
11.07.2019 19:00:00 16,3 15,1 0,0
11.07.2019 18:00:00 17,2 14,8 1,0
11.07.2019 17:00:00 17,5 15,3 1,0
11.07.2019 16:00:00 18,5 16,1 0,2
11.07.2019 15:00:00 18,4 16,1 0,0
11.07.2019 14:00:00 17,7 15,9 0,0
11.07.2019 13:00:00 17,4 15,6 1,4
11.07.2019 12:00:00 19,0 14,0 0,0
11.07.2019 11:00:00 18,3 15,5 0,0
11.07.2019 10:00:00 16,3 15,1 0,0
11.07.2019 09:00:00 16,5 15,4 0,2
11.07.2019 08:00:00 14,7 14,6 0,0
11.07.2019 07:00:00 14,3 14,3 0,0
11.07.2019 06:00:00 13,3 13,3 0,0
11.07.2019 05:00:00 13,2 13,2 0,0
11.07.2019 04:00:00 13,4 13,3 0,0
11.07.2019 03:00:00 13,5 13,4 0,0
11.07.2019 02:00:00 13,3 13,0 0,0
11.07.2019 01:00:00 13,9 13,5 0,0
11.07.2019 00:00:00 14,8 14,4 0,0
10.07.2019 23:00:00 15,6 14,9 0,0
10.07.2019 22:00:00 16,5 14,7 0,4
10.07.2019 21:00:00 17,8 15,0 0,0
10.07.2019 20:00:00 18,3 15,2 0,0
10.07.2019 19:00:00 19,1 15,1 0,0
10.07.2019 18:00:00 19,8 15,0 0,0
10.07.2019 17:00:00 19,8 14,8 0,0
10.07.2019 16:00:00 20,2 16,0 0,0
10.07.2019 15:00:00 19,6 14,9 0,0
10.07.2019 14:00:00 19,6 15,0 0,0
10.07.2019 13:00:00 19,5 15,8 0,0
10.07.2019 12:00:00 19,2 15,1 0,0
10.07.2019 11:00:00 19,7 14,9 0,0
10.07.2019 10:00:00 18,6 15,8 0,0
10.07.2019 09:00:00 17,1 15,0 0,0
10.07.2019 08:00:00 15,7 14,8 0,0
10.07.2019 07:00:00 14,4 14,3 0,2
10.07.2019 06:00:00 13,9 13,8 0,6
10.07.2019 05:00:00 13,8 13,6 1,2
10.07.2019 04:00:00 13,8 13,5 0,4
10.07.2019 03:00:00 14,3 13,8 0,2

tt = Température de l'air
td = dewpoint
rr = Quantités de précipitations

stations d'obs. à proximité